STARLINK-35003 (65413 NORAD) Tracking and Keplerian Element Data

This shows tracking and keplerian element data for the satellite.

Feedback or suggestion? Click here.




ElementValue
Catalog65413
NameSTARLINK-35003
Epoch Orbit1711
Epoch Day353.97137454
Epoch Year2025
RAAN247.2778
Inclination53.1585
Eccentricity0.0001135
Argument of Perigee101.6783
Mean Anonmoly258.4349
Mean Motion15.39601861
Decay Rate0.00030939
L11 65413U 25192K 25353.97137454 .00030939 00000+0 78079-3 0 9993
L22 65413 53.1585 247.2778 0001135 101.6783 258.4349 15.39601861 17116



Live tracking and technical data element details for STARLINK-35003 (NORAD 65413). STARLINK-35003 can be tracked NOW for your location showing map with azimuth and elevation plus other details from your city location.







IsCatalogInMostPopularTable: catalog: 65413, numindb: 4
Update: records affected: 1



GetName: 65413 STARLINK-35003

Hit Count: updated at: Sun, 08 Feb 2026 08:36:56 GMT